Olympia, WA

6:26 AM PDT on October 18, 2017 (GMT -0700)
Olympia

Weather History for KOLM - February, 2012

Change the Weather History Date:

Saturday, February 25, 2012

  Actual Average Record
Temperature  
Mean Temperature 39 °F 42 °F  
Max Temperature 43 °F 51 °F 63 °F (1992)
Min Temperature 35 °F 33 °F 5 °F (2011)
Degree Days  
Heating Degree Days 26 23  
Month to date heating degree days 573 598  
Since 1 July heating degree days 3784 3649  
Cooling Degree Days 0 0  
Month to date cooling degree days 0 0  
Year to date cooling degree days 0 0  
Moisture  
Dew Point 34 °F    
Average Humidity 83    
Maximum Humidity 92    
Minimum Humidity 73    
Precipitation  
Precipitation 0.19 in 0.18 in 1.37 in (1950)
Month to date precipitation 4.32 4.73  
Year to date precipitation 13.04 12.57  
Sea Level Pressure  
Sea Level Pressure 29.96 in    
Wind  
Wind Speed 13 mph (SW)    
Max Wind Speed 23 mph    
Max Gust Speed 33 mph    
Visibility 10 miles    
Events Rain    
T = Trace of Precipitation, MM = Missing Value Source: NWS Daily Summary

Daily Weather History Graph

Daily Weather History Graph

Search for Another Location

Airport or City:

Trip Planner

Search our weather history database for the weather conditions in past years. The results will help you decide how hot, cold, wet, or windy it might be!

Date:

Astronomy

Feb. 25, 2012 Rise Set
Actual Time 6:59 AM PST 5:50 PM PST
Civil Twilight 6:28 AM PST 6:21 PM PST
Nautical Twilight 5:53 AM PST 6:56 PM PST
Astronomical Twilight 5:18 AM PST 7:31 PM PST
Moon 8:07 AM PST (2/25) 10:18 PM PST (2/25)
Length of Visible Light 11h 52m
Length of Day
10h 51m
Waxing Crescent, 14% of the Moon is Illuminated
Feb 25
Waxing Crescent
Feb 29
First Quarter
Mar 8
Full
Mar 14
Last Quarter
Mar 22
New

Hourly Weather History & Observations

Time (PST) Temp. Windchill Dew Point Humidity Pressure Visibility Wind Dir Wind Speed Gust Speed Precip Events Conditions
12:18 AM 42.8 °F 37.5 °F 39.2 °F 87% 29.64 in 8.0 mi SW 9.2 mph - 0.01 in Rain Light Rain
12:28 AM 41.0 °F 33.5 °F 39.2 °F 93% 29.64 in 6.0 mi SSW 13.8 mph 18.4 mph 0.02 in Rain Light Rain
12:40 AM 41.0 °F 35.8 °F 39.2 °F 93% 29.64 in 9.0 mi SSW 8.1 mph - 0.03 in Rain Light Rain
12:54 AM 39.2 °F 33.0 °F 37.4 °F 93% 29.65 in 10.0 mi SSW 9.2 mph - N/A Rain Light Rain
1:23 AM 41.0 °F 33.9 °F 37.4 °F 87% 29.65 in 10.0 mi SSW 12.7 mph 19.6 mph 0.01 in Rain Light Rain
1:54 AM 39.9 °F 32.9 °F 36.0 °F 86% 29.69 in 10.0 mi WSW 11.5 mph 24.2 mph 0.01 in Rain Light Rain
2:51 AM 39.2 °F 32.5 °F 33.8 °F 81% 29.74 in 10.0 mi WSW 10.4 mph - 0.00 in   Overcast
2:54 AM 39.2 °F 31.6 °F 33.8 °F 81% 29.74 in 10.0 mi SW 12.7 mph - N/A   Overcast
3:12 AM 39.2 °F 30.8 °F 33.8 °F 81% 29.75 in 10.0 mi SW 15.0 mph 23.0 mph 0.00 in Rain Light Rain
3:54 AM 37.4 °F 28.5 °F 33.8 °F 87% 29.78 in 10.0 mi West 15.0 mph 24.2 mph N/A Rain Light Rain
4:07 AM 37.4 °F 29.3 °F 32.0 °F 81% 29.80 in 10.0 mi WSW 12.7 mph - 0.00 in   Mostly Cloudy
4:54 AM 39.0 °F 29.9 °F 32.0 °F 76% 29.84 in 9.0 mi WSW 17.3 mph 23.0 mph 0.00 in Rain Light Rain
5:05 AM 37.4 °F 29.3 °F 33.8 °F 87% 29.84 in 9.0 mi WSW 12.7 mph 24.2 mph 0.00 in Rain Light Rain
5:12 AM 37.4 °F 28.2 °F 32.0 °F 81% 29.85 in 10.0 mi West 16.1 mph 27.6 mph 0.00 in Rain Light Rain
5:54 AM 37.9 °F 30.0 °F 32.0 °F 79% 29.89 in 10.0 mi WSW 12.7 mph 23.0 mph 0.00 in Rain Light Rain
6:26 AM 37.4 °F 28.2 °F 30.2 °F 75% 29.91 in 10.0 mi WSW 16.1 mph - 0.00 in Rain Light Rain
6:54 AM 39.0 °F 31.4 °F 30.9 °F 73% 29.92 in 10.0 mi WSW 12.7 mph 23.0 mph 0.00 in   Mostly Cloudy
7:54 AM 37.9 °F 30.0 °F 30.9 °F 76% 29.97 in 10.0 mi WSW 12.7 mph 20.7 mph N/A   Scattered Clouds
8:54 AM 37.9 °F 30.0 °F 32.0 °F 79% 30.00 in 10.0 mi SW 12.7 mph 23.0 mph 0.00 in   Scattered Clouds
9:54 AM 39.0 °F 32.3 °F 32.0 °F 76% 30.04 in 10.0 mi SW 10.4 mph 18.4 mph N/A   Scattered Clouds
10:26 AM 39.2 °F 33.6 °F 33.8 °F 81% 30.05 in 6.0 mi SW 8.1 mph 19.6 mph 0.01 in Rain Light Rain
10:54 AM 39.0 °F 31.4 °F 34.0 °F 82% 30.07 in 10.0 mi SW 12.7 mph 19.6 mph 0.01 in   Overcast
11:54 AM 39.0 °F 30.6 °F 34.0 °F 82% 30.09 in 9.0 mi WSW 15.0 mph 21.9 mph 0.03 in Rain Light Rain
12:54 PM 42.1 °F 35.2 °F 35.1 °F 76% 30.10 in 9.0 mi WSW 12.7 mph 19.6 mph 0.02 in Rain Light Rain
1:54 PM 39.9 °F 31.4 °F 34.0 °F 79% 30.13 in 10.0 mi SW 16.1 mph 21.9 mph 0.02 in Rain Light Rain
2:54 PM 43.0 °F 36.4 °F 32.0 °F 65% 30.15 in 10.0 mi SW 12.7 mph - 0.00 in   Mostly Cloudy
3:54 PM 41.0 °F 34.3 °F 33.1 °F 73% 30.17 in 10.0 mi SW 11.5 mph - 0.00 in   Scattered Clouds
4:54 PM 39.0 °F 29.0 °F 33.1 °F 79% 30.17 in 10.0 mi West 20.7 mph 27.6 mph 0.01 in Rain Light Rain
5:54 PM 37.0 °F 28.5 °F 33.1 °F 86% 30.20 in 10.0 mi SW 13.8 mph - 0.03 in   Mostly Cloudy
6:54 PM 37.9 °F 30.9 °F 30.9 °F 76% 30.22 in 10.0 mi SW 10.4 mph 21.9 mph 0.00 in   Mostly Cloudy
7:54 PM 37.0 °F 29.8 °F 33.1 °F 86% 30.24 in 9.0 mi SSW 10.4 mph - 0.01 in Rain Light Rain
8:54 PM 37.9 °F 32.1 °F 33.1 °F 83% 30.24 in 10.0 mi SSW 8.1 mph - 0.00 in   Mostly Cloudy
9:54 PM 37.0 °F 29.3 °F 32.0 °F 82% 30.25 in 10.0 mi SSW 11.5 mph - 0.00 in   Overcast
10:54 PM 36.0 °F 28.5 °F 33.1 °F 89% 30.25 in 10.0 mi SW 10.4 mph - 0.01 in   Overcast
11:54 PM 36.0 °F 29.6 °F 33.1 °F 89% 30.25 in 10.0 mi SW 8.1 mph - N/A   Mostly Cloudy